OneWeb SL0507

operational
NORAD ID: 54125 Int'l Des: 2022-138 Owner: ONEWEBN Country: UK Constellation: oneweb
LEOCIRCULARPOLARONEWEB_TYPE

About OneWeb SL0507

Description loading...

Live Position

Loading 3D Globe...

Upcoming Passes

Altitude History

Altitude vs Time

uPlot chart will show altitude changes over time

Two-Line Element Set

1 54125U 22138N 25306.35234106 .00000048 00000-0 86530-4 0 9991
2 54125 87.9230 350.1215 0002032 102.6567 257.4793 13.19726112146932
Epoch: Nov 2, 2025 • Age: 38 hours

Current Status

Altitude 1214.5 km
Velocity 7.25 km/s
Sub-Earth Point -74.16°S, 35.3°W
Launch Date Oct 22, 2022
Age 3 years
Type internet

Technical Details

Classification Payload
Mass 148.00 kg
Dry Mass 140.00 kg
Total Mass 148.00 kg
Length 1.30 m
Diameter 1.00 m
Span 5.00 m
Shape Trapezoid+2 pan
Manufacturer ONEWUS
Bus Type ARROW
Phase Status In Orbit
Owner/State ONEWEBN/UK

Large Constellations

Loading constellations...